Weather History for Novato, CA

Change the Weather History Date:

Thursday, December 6, 2012

  Actual Average (KAPC) Record (KAPC)
Temperature  
Mean Temperature 52 °F 47 °F  
Max Temperature 60 °F 57 °F 66 °F (2006)
Min Temperature 44 °F 36 °F 20 °F (2013)
Degree Days  
Heating Degree Days 13    
Month to date heating degree days  
Since 1 July heating degree days  
Cooling Degree Days 0    
Month to date cooling degree days  
Year to date cooling degree days  
Growing Degree Days 2 (Base 50)    
Moisture  
Dew Point 51 °F    
Average Humidity 94    
Maximum Humidity 100    
Minimum Humidity 68    
Precipitation  
Precipitation 0.00 in - 1.78 in (1955)
Month to date precipitation  
Year to date precipitation  
Since 1 July precipitation  
Sea Level Pressure  
Sea Level Pressure 30.12 in    
Wind  
Wind Speed 2 mph (NW)    
Max Wind Speed 9 mph    
Max Gust Speed -    
Visibility 10 miles    
Events      
T = Trace of Precipitation, MM = Missing Value Source: NWS Daily Summary

Daily Weather History Graph

Daily Weather History Graph

Search for Another Location

Airport:

Trip Planner

Search our weather history database for the weather conditions in past years. The results will help you decide how hot, cold, wet, or windy it might be!

Date:

Astronomy

Dec. 06, 2012 Rise Set
Actual Time 7:12 AM PST 4:50 PM PST
Civil Twilight 6:43 AM PST 5:19 PM PST
Nautical Twilight 6:10 AM PST 5:52 PM PST
Astronomical Twilight 5:38 AM PST 6:24 PM PST
Moon No Moon Rise 12:13 PM PST (12/6)
Length of Visible Light 10h 35m
Length of Day
9h 37m
Waning Gibbous, 48% of the Moon is Illuminated
Dec 6
Waning Gibbous
Dec 13
New
Dec 19
First Quarter
Dec 28
Full
Jan 4
Last Quarter

Hourly Weather History & Observations

Time (PST) Temp. Dew Point Humidity Pressure Visibility Wind Dir Wind Speed Gust Speed Precip Events Conditions
12:15 AM 55.4 °F 55.4 °F 100% 30.15 in 3.0 mi SW 3.5 mph - N/A   Overcast
5:35 AM 53.6 °F 53.6 °F 100% 30.11 in 10.0 mi South 3.5 mph - N/A   Overcast
5:55 AM 53.6 °F 53.6 °F 100% 30.11 in 10.0 mi SE 3.5 mph - N/A   Overcast
6:15 AM 51.8 °F 51.8 °F 100% 30.12 in 10.0 mi Calm Calm - N/A   Overcast
6:35 AM 51.8 °F 51.8 °F 100% 30.12 in 10.0 mi Calm Calm - N/A   Overcast
6:55 AM 51.8 °F 51.8 °F 100% 30.12 in 10.0 mi Calm Calm - N/A   Overcast
7:15 AM 51.8 °F 51.8 °F 100% 30.12 in 10.0 mi SSW 3.5 mph - N/A   Overcast
7:35 AM 51.8 °F 51.8 °F 100% 30.11 in 10.0 mi Calm Calm - N/A   Overcast
7:55 AM 51.8 °F 51.8 °F 100% 30.12 in 10.0 mi Calm Calm - N/A   Overcast
8:15 AM 53.6 °F 53.6 °F 100% 30.12 in 10.0 mi Calm Calm - N/A   Overcast
8:35 AM 53.6 °F 53.6 °F 100% 30.13 in 10.0 mi Calm Calm - N/A   Overcast
8:55 AM 53.6 °F 53.6 °F 100% 30.14 in 10.0 mi NNW 6.9 mph - N/A   Overcast
9:15 AM 53.6 °F 53.6 °F 100% 30.14 in 10.0 mi NNW 6.9 mph - N/A   Overcast
9:35 AM 53.6 °F 53.6 °F 100% 30.14 in 10.0 mi Calm Calm - N/A   Overcast
9:55 AM 53.6 °F 53.6 °F 100% 30.15 in 10.0 mi NNW 3.5 mph - N/A   Overcast
10:15 AM 55.4 °F 53.6 °F 94% 30.15 in 10.0 mi North 4.6 mph - N/A   Overcast
10:35 AM 55.4 °F 53.6 °F 94% 30.15 in 10.0 mi Calm Calm - N/A   Overcast
10:55 AM 55.4 °F 53.6 °F 94% 30.14 in 10.0 mi NNW 3.5 mph - N/A   Overcast
11:15 AM 57.2 °F 55.4 °F 94% 30.14 in 10.0 mi NW 6.9 mph - N/A   Overcast
11:35 AM 57.2 °F 55.4 °F 94% 30.13 in 10.0 mi NNW 4.6 mph - N/A   Overcast
11:55 AM 57.2 °F 55.4 °F 94% 30.12 in 10.0 mi NNW 6.9 mph - N/A   Overcast
12:15 PM 57.2 °F 55.4 °F 94% 30.12 in 10.0 mi NNW 9.2 mph - N/A   Overcast
12:35 PM 57.2 °F 55.4 °F 94% 30.11 in 10.0 mi NNW 6.9 mph - N/A   Overcast
12:55 PM 59.0 °F 50.0 °F 72% 30.10 in 10.0 mi Calm Calm - N/A   Scattered Clouds
1:15 PM 60.8 °F 50.0 °F 68% 30.10 in 10.0 mi Calm Calm - N/A   Partly Cloudy
1:35 PM 59.0 °F 50.0 °F 72% 30.10 in 10.0 mi NW 3.5 mph - N/A   Mostly Cloudy
1:55 PM 59.0 °F 50.0 °F 72% 30.09 in 10.0 mi WNW 3.5 mph - N/A   Mostly Cloudy
2:15 PM 59.0 °F 51.8 °F 77% 30.09 in 10.0 mi NNW 3.5 mph - N/A   Overcast
2:35 PM 59.0 °F 50.0 °F 72% 30.08 in 10.0 mi Calm Calm - N/A   Mostly Cloudy
2:55 PM 59.0 °F 50.0 °F 72% 30.08 in 10.0 mi NW 3.5 mph - N/A   Scattered Clouds
3:15 PM 59.0 °F 51.8 °F 77% 30.09 in 10.0 mi NW 4.6 mph - N/A   Scattered Clouds
3:35 PM 59.0 °F 51.8 °F 77% 30.09 in 10.0 mi West 3.5 mph - N/A   Mostly Cloudy
3:55 PM 59.0 °F 53.6 °F 82% 30.09 in 10.0 mi NW 5.8 mph - N/A   Overcast
4:15 PM 57.2 °F 51.8 °F 82% 30.09 in 10.0 mi West 3.5 mph - N/A   Mostly Cloudy
4:35 PM 55.4 °F 51.8 °F 88% 30.09 in 10.0 mi Calm Calm - N/A   Scattered Clouds
4:55 PM 53.6 °F 51.8 °F 94% 30.09 in 10.0 mi Calm Calm - N/A   Partly Cloudy
5:15 PM 53.6 °F 53.6 °F 100% 30.10 in 10.0 mi East 3.5 mph - N/A   Scattered Clouds
5:35 PM 53.6 °F 51.8 °F 94% 30.10 in 10.0 mi SE 3.5 mph - N/A   Mostly Cloudy
5:55 PM 53.6 °F 50.0 °F 88% 30.10 in 10.0 mi SSW 4.6 mph - N/A   Clear
6:15 PM 51.8 °F 50.0 °F 94% 30.11 in 10.0 mi ENE 3.5 mph - N/A   Clear
6:35 PM 50.0 °F 50.0 °F 100% 30.11 in 10.0 mi East 3.5 mph - N/A   Clear
6:55 PM 50.0 °F 50.0 °F 100% 30.12 in 10.0 mi Calm Calm - N/A   Clear
7:15 PM 50.0 °F 50.0 °F 100% 30.12 in 10.0 mi Calm Calm - N/A   Clear
7:35 PM 48.2 °F 48.2 °F 100% 30.12 in 10.0 mi Calm Calm - N/A   Clear
7:55 PM 46.4 °F 46.4 °F 100% 30.13 in 10.0 mi Calm Calm - N/A   Clear
8:15 PM 46.4 °F 46.4 °F 100% 30.13 in 10.0 mi Calm Calm - N/A   Clear
8:35 PM 46.4 °F 46.4 °F 100% 30.13 in 10.0 mi Calm Calm - N/A   Clear
8:55 PM 46.4 °F 46.4 °F 100% 30.13 in 10.0 mi Calm Calm - N/A   Clear
9:15 PM 46.4 °F 46.4 °F 100% 30.14 in 10.0 mi Calm Calm - N/A   Clear
9:35 PM 46.4 °F 46.4 °F 100% 30.14 in 10.0 mi Calm Calm - N/A   Clear
9:55 PM 46.4 °F 46.4 °F 100% 30.14 in 10.0 mi Calm Calm - N/A   Clear
10:15 PM 46.4 °F 46.4 °F 100% 30.14 in 10.0 mi Calm Calm - N/A   Clear
10:35 PM 44.6 °F 44.6 °F 100% 30.14 in 10.0 mi Calm Calm - N/A   Clear
10:55 PM 44.6 °F 44.6 °F 100% 30.14 in 10.0 mi Calm Calm - N/A   Clear
11:15 PM 44.6 °F 44.6 °F 100% 30.14 in 10.0 mi Calm Calm - N/A   Clear
11:35 PM 44.6 °F 44.6 °F 100% 30.14 in 10.0 mi Calm Calm - N/A   Clear
11:55 PM 44.6 °F 44.6 °F 100% 30.14 in 10.0 mi Calm Calm - N/A   Clear